• In Hungary
  • List of Countries
  • For 7 days
  • Water Temperature
  • Satellite Maps
  • Weather Map
  • News
  • Weather Widgets
  • user-avatar
    Login

    Hourly Weather Salzburg

    Today, 19 September, Wednesday

    Time Temperature Precipitation Wind Pressure Humidity
    00:00 +10°C° 0.6 mm 1 mps 630 mmHg 92%
    01:00 +10°C° 0.6 mm 1 mps 630 mmHg 92%
    02:00 +9°C° 0.5 mm 1 mps 630 mmHg 92%
    03:00 +9°C° 0.5 mm 1 mps 629 mmHg 92%
    04:00 +9°C° 0.5 mm 1 mps 629 mmHg 91%
    05:00 +9°C° 0.3 mm 1 mps 630 mmHg 91%
    06:00 +10°C° 0.3 mm 1 mps 630 mmHg 90%
    07:00 +10°C° 0.3 mm 1 mps 630 mmHg 90%
    08:00 +12°C° 0.1 mm 1 mps 631 mmHg 81%
    09:00 +15°C° 0.1 mm 1 mps 632 mmHg 72%
    10:00 +18°C° 0.1 mm 1 mps 633 mmHg 62%
    11:00 +19°C° 0.3 mm 1 mps 633 mmHg 60%
    12:00 +19°C° 0.3 mm 1 mps 633 mmHg 58%
    13:00 +20°C° 0.3 mm 1 mps 633 mmHg 56%
    14:00 +19°C° 0.3 mm 1 mps 633 mmHg 59%
    15:00 +19°C° 0.3 mm 1 mps 633 mmHg 62%
    16:00 +19°C° 0.3 mm 1 mps 632 mmHg 65%
    17:00 +15°C° 0.1 mm 1 mps 632 mmHg 74%
    18:00 +13°C° 0.1 mm 1 mps 631 mmHg 82%
    19:00 +11°C° 0.1 mm 1 mps 631 mmHg 91%
    20:00 +11°C° 0 mm 1 mps 631 mmHg 91%
    21:00 +10°C° 0 mm 1 mps 631 mmHg 92%
    22:00 +10°C° 0 mm 1 mps 631 mmHg 93%
    23:00 +9°C° 0 mm 1 mps 631 mmHg 92%

    Tomorrow, 20 September, Thursday

    Time Temperature Precipitation Wind Pressure Humidity
    00:00 +9°C° 0 mm 1 mps 631 mmHg 92%
    01:00 +9°C° 0 mm 1 mps 631 mmHg 91%
    02:00 +9°C° 0 mm 1 mps 630 mmHg 90%
    03:00 +8°C° 0 mm 1 mps 630 mmHg 88%
    04:00 +8°C° 0 mm 1 mps 630 mmHg 86%
    05:00 +8°C° 0 mm 1 mps 630 mmHg 84%
    06:00 +9°C° 0 mm 1 mps 630 mmHg 81%
    07:00 +9°C° 0 mm 1 mps 631 mmHg 79%
    08:00 +12°C° 0 mm 1 mps 632 mmHg 69%
    09:00 +15°C° 0 mm 1 mps 633 mmHg 59%
    10:00 +17°C° 0 mm 0 mps 634 mmHg 49%
    11:00 +18°C° 0 mm 0 mps 634 mmHg 47%
    12:00 +20°C° 0 mm 1 mps 634 mmHg 45%
    13:00 +21°C° 0 mm 1 mps 634 mmHg 43%
    14:00 +21°C° 0 mm 1 mps 633 mmHg 47%
    15:00 +20°C° 0 mm 1 mps 633 mmHg 51%
    16:00 +20°C° 0 mm 1 mps 632 mmHg 54%
    17:00 +16°C° 0 mm 1 mps 632 mmHg 65%
    18:00 +14°C° 0 mm 1 mps 631 mmHg 76%
    19:00 +11°C° 0 mm 1 mps 630 mmHg 86%
    20:00 +11°C° 0 mm 1 mps 630 mmHg 86%
    21:00 +10°C° 0 mm 1 mps 630 mmHg 85%
    22:00 +10°C° 0 mm 1 mps 630 mmHg 84%
    23:00 +10°C° 0 mm 1 mps 629 mmHg 84%

    Day after tomorrow, 21 September, Friday

    Time Temperature Precipitation Wind Pressure Humidity
    00:00 +8°C° 0 mm 2 mps 629 mmHg 84%
    01:00 +8°C° 0 mm 2 mps 629 mmHg 84%
    02:00 +8°C° 0 mm 2 mps 628 mmHg 85%
    03:00 +8°C° 0 mm 2 mps 628 mmHg 85%
    04:00 +7°C° 0 mm 2 mps 628 mmHg 86%
    05:00 +8°C° 0 mm 2 mps 628 mmHg 85%
    06:00 +8°C° 0 mm 2 mps 628 mmHg 84%
    07:00 +10°C° 0 mm 1 mps 628 mmHg 83%
    08:00 +13°C° 0 mm 1 mps 629 mmHg 72%
    09:00 +16°C° 0 mm 1 mps 630 mmHg 62%
    10:00 +20°C° 0 mm 1 mps 631 mmHg 51%
    11:00 +21°C° 0 mm 1 mps 631 mmHg 49%
    12:00 +22°C° 0 mm 1 mps 631 mmHg 46%
    13:00 +22°C° 0 mm 1 mps 631 mmHg 43%
    14:00 +22°C° 0 mm 1 mps 631 mmHg 47%
    15:00 +21°C° 0 mm 1 mps 630 mmHg 51%
    16:00 +21°C° 0 mm 1 mps 630 mmHg 55%
    17:00 +18°C° 0 mm 1 mps 629 mmHg 66%
    18:00 +15°C° 0 mm 1 mps 628 mmHg 77%
    19:00 +12°C° 0 mm 1 mps 627 mmHg 87%
    20:00 +12°C° 0 mm 1 mps 628 mmHg 88%
    21:00 +12°C° 0 mm 1 mps 628 mmHg 88%
    22:00 +10°C° 0 mm 2 mps 628 mmHg 88%
    23:00 +11°C° 0 mm 1 mps 628 mmHg 87%

    22 September, Saturday

    Time Temperature Precipitation Wind Pressure Humidity
    00:00 +11°C° 0 mm 1 mps 628 mmHg 86%
    01:00 +11°C° 0 mm 1 mps 628 mmHg 86%
    02:00 +11°C° 0.1 mm 1 mps 628 mmHg 88%
    03:00 +11°C° 0.1 mm 1 mps 628 mmHg 91%
    04:00 +10°C° 0.1 mm 1 mps 628 mmHg 94%
    05:00 +9°C° 0.3 mm 2 mps 629 mmHg 95%
    06:00 +8°C° 0.3 mm 2 mps 629 mmHg 95%
    07:00 +8°C° 0.3 mm 2 mps 629 mmHg 96%
    08:00 +7°C° 0.5 mm 2 mps 629 mmHg 96%
    09:00 +7°C° 0.5 mm 2 mps 629 mmHg 96%
    10:00 +7°C° 0.5 mm 1 mps 629 mmHg 95%
    11:00 +7°C° 0.8 mm 1 mps 629 mmHg 96%
    12:00 +5°C° 0.8 mm 2 mps 629 mmHg 96%
    13:00 +5°C° 0.8 mm 2 mps 629 mmHg 96%
    14:00 +4°C° 0.8 mm 2 mps 629 mmHg 96%
    15:00 +4°C° 0.8 mm 2 mps 629 mmHg 96%
    16:00 +3°C° 0.8 mm 2 mps 629 mmHg 96%
    17:00 +3°C° 0.5 mm 2 mps 629 mmHg 96%
    18:00 +3°C° 0.5 mm 2 mps 629 mmHg 95%
    19:00 +3°C° 0.5 mm 1 mps 630 mmHg 95%
    20:00 +3°C° 0.1 mm 1 mps 630 mmHg 95%
    21:00 +3°C° 0.1 mm 1 mps 630 mmHg 94%
    22:00 +2°C° 0.1 mm 1 mps 630 mmHg 94%
    23:00 +2°C° 0 mm 1 mps 630 mmHg 92%

    23 September, Sunday

    Time Temperature Precipitation Wind Pressure Humidity
    00:00 +2°C° 0 mm 1 mps 630 mmHg 90%
    01:00 +2°C° 0 mm 1 mps 630 mmHg 89%
    02:00 +1°C° 0 mm 1 mps 629 mmHg 89%
    03:00 +1°C° 0 mm 1 mps 629 mmHg 89%
    04:00 +1°C° 0 mm 1 mps 628 mmHg 89%
    05:00 +2°C° 0 mm 1 mps 628 mmHg 89%
    06:00 +2°C° 0 mm 1 mps 628 mmHg 89%
    07:00 +2°C° 0 mm 2 mps 628 mmHg 88%
    08:00 +5°C° 0 mm 2 mps 629 mmHg 80%
    09:00 +7°C° 0 mm 2 mps 629 mmHg 72%
    10:00 +10°C° 0 mm 2 mps 630 mmHg 64%
    11:00 +12°C° 0 mm 3 mps 629 mmHg 61%
    12:00 +14°C° 0 mm 3 mps 629 mmHg 58%
    13:00 +16°C° 0 mm 3 mps 629 mmHg 55%
    14:00 +16°C° 0 mm 3 mps 628 mmHg 58%
    15:00 +16°C° 0 mm 3 mps 627 mmHg 61%
    16:00 +16°C° 0 mm 3 mps 627 mmHg 64%
    17:00 +13°C° 0 mm 3 mps 626 mmHg 71%
    18:00 +11°C° 0 mm 3 mps 624 mmHg 78%
    19:00 +9°C° 0 mm 3 mps 623 mmHg 86%
    20:00 +9°C° 0 mm 3 mps 623 mmHg 86%
    21:00 +8°C° 0 mm 3 mps 622 mmHg 86%
    22:00 +8°C° 0 mm 3 mps 622 mmHg 87%
    23:00 +8°C° 0.2 mm 3 mps 622 mmHg 89%

    24 September, Monday

    Time Temperature Precipitation Wind Pressure Humidity
    00:00 +8°C° 0.2 mm 3 mps 622 mmHg 92%
    01:00 +7°C° 0.2 mm 3 mps 621 mmHg 95%
    02:00 +5°C° 1.8 mm 3 mps 621 mmHg 96%
    03:00 +4°C° 1.8 mm 3 mps 620 mmHg 97%
    04:00 +3°C° 1.8 mm 3 mps 620 mmHg 98%
    05:00 +3°C° 3.8 mm 3 mps 620 mmHg 97%
    06:00 +3°C° 3.8 mm 2 mps 620 mmHg 97%
    07:00 +2°C° 3.8 mm 2 mps 620 mmHg 97%
    08:00 +2°C° 1.7 mm 2 mps 620 mmHg 96%
    09:00 +2°C° 1.7 mm 2 mps 620 mmHg 95%
    10:00 +1°C° 1.7 mm 3 mps 620 mmHg 93%
    11:00 +2°C° 0.8 mm 3 mps 620 mmHg 91%
    12:00 +3°C° 0.8 mm 3 mps 621 mmHg 89%
    13:00 +3°C° 0.8 mm 4 mps 621 mmHg 86%
    14:00 +3°C° 0.8 mm 4 mps 622 mmHg 87%
    15:00 +3°C° 0.8 mm 4 mps 622 mmHg 89%
    16:00 +3°C° 0.8 mm 4 mps 623 mmHg 90%
    17:00 +1°C° 1.3 mm 4 mps 623 mmHg 92%
    18:00 +1°C° 1.3 mm 4 mps 624 mmHg 94%
    19:00 0°C° 1.3 mm 4 mps 624 mmHg 96%
    20:00 0°C° 1.1 mm 4 mps 625 mmHg 96%
    21:00 -1°C° 1.1 mm 4 mps 626 mmHg 96%
    22:00 -1°C° 1.1 mm 4 mps 626 mmHg 96%
    23:00 -2°C° 0.6 mm 4 mps 626 mmHg 96%
    Show more